Location: Bad Salzschlirf
(50.3750°N, 9.3000°E)
Time: 03:46:14
(UTC+02:00)

ISS - Pass Details

Date: 08 July 2020
Orbit: 417 x 421 km, 51.6° (Epoch: 08 July)

Event Time Altitude Azimuth Distance (km) Brightness Sun altitude
Exits shadow 01:51:35 26° 123° (ESE) 865 -2.4 -17.0°
Drops below altitude 10° 01:53:48 10° 86° (E) 1,497 -0.8 -17.0°
Sets 01:56:04 0° 74° (ENE) 2,363 0.4 -16.9°
